Welcome to the New NWS' Forecast!
Most changes are behind the scenes, but click here for differences you might notice.
Latest weather observations around

Canton, Cherokee County Airport (KCNI)

Using English Units (Switch to International System of Units)
Date/ Time (EST) Wind (mph) Vis. (mi) Weather Sky Cond. Temp (°F) Rel. Humidity Wind Chill (°F) Heat Index (°F) Pressure Precip. (in)
Air Dwpt 6 hour Altimeter (inHg) Sea level (inHg) 1 hr 3 hr 6 hr
Max Min
Nov 18 02:55 Calm 10 Clear CLR 46 41     81%     30.06        
Nov 18 02:35 Calm 10 Clear CLR 46 41     81%     30.06        
Nov 18 02:15 Calm 10 Clear CLR 46 41     81%     30.06        
Nov 18 01:55 Calm 10 Clear CLR 46 41     81%     30.06        
Nov 18 01:35 Calm 10 Clear CLR 48 41     76%     30.06        
Nov 18 01:15 Calm 10 Clear CLR 48 41     76%     30.08        
Nov 18 00:55 Calm 10 Clear CLR 48 41     76%     30.08        
Nov 18 00:35 Calm 10 Clear CLR 48 41     76%     30.07        
Nov 18 00:15 Calm 10 Clear CLR 50 41     71%     30.08        
Nov 17 23:55 Calm 10 Clear CLR 50 41     71%     30.08        
Nov 17 23:35 Calm 10 Clear CLR 50 41     71%     30.1        
Nov 17 23:15 Calm 10 Clear CLR 50 41     71%     30.1        
Nov 17 22:55 Calm 10 Clear CLR 52 41     67%     30.11        
Nov 17 22:35 Calm 10 Clear CLR 52 41     67%     30.11        
Nov 17 22:15 Calm 10 Clear CLR 52 41     67%     30.12        
Nov 17 21:55 Calm 10 Clear CLR 52 41     67%     30.12        
Nov 17 21:35 Calm 10 Clear CLR 52 41     67%     30.11        
Nov 17 21:15 Calm 10 Clear CLR 52 41     67%     30.11        
Nov 17 20:55 Calm 10 Clear CLR 52 41     67%     30.11        
Nov 17 20:35 Calm 10 Clear CLR 54 41     62%     30.11        
Nov 17 20:15 Calm 10 Clear CLR 54 41     62%     30.11        
Nov 17 19:55 E 3 10 Clear CLR 55 41     58%     30.1        
Nov 17 19:35 Calm 10 Clear CLR 55 41     58%     30.11        
Nov 17 19:15 Calm 10 Clear CLR 55 41     58%     30.11        
Nov 17 18:55 Calm 10 Clear CLR 57 41     55%     30.11        
Nov 17 18:35 Calm 10 Clear CLR 59 41     51%     30.1        
Nov 17 18:15 Calm 10 Clear CLR 61 41     48%     30.09        
Nov 17 17:55 Calm 10 Clear CLR 61 39     45%     30.09        
Nov 17 17:35 Calm 10 Clear CLR 63 39     42%     30.1        
Nov 17 17:15 SE 3 10 Clear CLR 63 39     42%     30.09        
Nov 17 16:55 Calm 10 Partly Cloudy SCT002 64 37     37%     30.09        
Nov 17 16:35 SE 5 10 Clear CLR 64 37     37%     30.09        
Nov 17 16:15 SE 7 10 Clear CLR 64 37     37%     30.09        
Nov 17 15:55 SSE 6 10 Clear CLR 66 36     32%     30.09        
Nov 17 15:35 SE 6 10 Clear CLR 66 36     32%     30.09        
Nov 17 15:15 SE 5 10 Clear CLR 68 36     30%     30.09        
Nov 17 14:55 ESE 6 10 Clear CLR 68 36     30%     30.11        
Nov 17 14:35 ESE 7 10 Clear CLR 68 36     30%     30.12        
Nov 17 14:15 SE 8 10 Clear CLR 66 36     32%     30.13        
Nov 17 13:55 S 7 10 Clear CLR 66 36     32%     30.14        
Nov 17 13:35 S 5 10 Clear CLR 64 36     34%     30.14        
Nov 17 13:15 ESE 5 10 Clear CLR 64 36     34%     30.15        
Nov 17 12:55 ESE 6 10 Clear CLR 64 36     34%     30.15        
Nov 17 12:35 E 9 10 Clear CLR 64 36     34%     30.15        
Nov 17 12:15 SE 5 10 Clear CLR 63 36     36%     30.18        
Nov 17 11:55 SE 6 10 Clear CLR 63 36     36%     30.19        
Nov 17 11:35 ESE 8 10 Clear CLR 61 36     39%     30.19        
Nov 17 11:15 Calm 10 Clear CLR 61 37     42%     30.2        
Nov 17 10:55 E 3 10 Clear CLR 59 37     45%     30.21        
Nov 17 10:35 E 7 10 Clear CLR 55 37     51%     30.21        
Nov 17 10:15 E 5 10 Clear CLR 55 36     47%     30.21        
Nov 17 09:55 ENE 3 10 Clear CLR 52 37     58%     30.22        
Nov 17 09:35 Calm 10 Clear CLR 50 37     62%     30.22        
Nov 17 09:15 Calm 10 Clear CLR 46 37     71%     30.21        
Nov 17 08:55 Calm 10 Clear CLR 41 41     100%     30.21        
Nov 17 08:35 Calm 10 Clear CLR 37 37     100%     30.21        
Nov 17 08:15 Calm 10 Clear CLR 36 36     100%     30.21        
Nov 17 07:55 Calm 10 Clear CLR 34 34     100%     30.2        
Nov 17 07:35 Calm 10 Clear CLR 34 34     100%     30.19        
Nov 17 07:15 Calm 10 Clear CLR 34 34     100%     30.18        
Nov 17 06:55 Calm 10 Clear CLR 32 32     100%     30.18        
Nov 17 06:35 Calm 10 Clear CLR 34 34     100%     30.18        
Nov 17 06:15 Calm 10 Clear CLR 36 36     100%     30.17        
Nov 17 05:55 Calm 10 Clear CLR 36 36     100%     30.15        
Nov 17 05:35 Calm 10 Clear CLR 34 34     100%     30.15        
Nov 17 05:15 Calm 10 Clear CLR 36 36     100%     30.15        
Nov 17 04:55 N 3 10 Clear CLR 34 34     100% 31   30.14        
Nov 17 04:35 Calm 10 Clear CLR 34 34     100%     30.14        
Nov 17 04:15 Calm 10 Clear CLR 36 36     100%     30.14        
Nov 17 03:55 Calm 10 Clear CLR 36 36     100%     30.14        
Nov 17 03:35 Calm 10 Clear CLR 36 36     100%     30.15        
Nov 17 03:15 Calm 10 Clear CLR 37 36     93%     30.14        
Nov 17 02:55 Calm 10 Clear CLR 37 36     93%     30.14        
Nov 17 02:35 Calm 10 Clear CLR 39 37     93%     30.14        
Nov 17 02:15 Calm 10 Clear CLR 37 37     100%     30.14        
Nov 17 01:55 Calm 10 Clear CLR 39 37     93%     30.14        
Nov 17 01:35 Calm 10 Clear CLR 41 37     87%     30.14        
Nov 17 01:15 Calm 10 Clear CLR 41 37     87%     30.14        
Nov 17 00:55 Calm 10 Clear CLR 41 37     87%     30.14        
Nov 17 00:35 Calm 10 Clear CLR 45 37     76%     30.14        
Nov 17 00:15 Calm 10 Clear CLR 43 41     93%     30.14        
Nov 16 23:55 Calm 10 Clear CLR 43 37     81%     30.13        
Nov 16 23:35 Calm 10 Clear CLR 46 37     71%     30.13        
Nov 16 23:15 Calm 10 Clear CLR 46 39     76%     30.13        
Nov 16 22:55 Calm 10 Clear CLR 48 37     66%     30.14        
Nov 16 22:35 Calm 10 Clear CLR 46 39     76%     30.14        
Nov 16 22:15 Calm 10 Clear CLR 46 37     71%     30.14        
Nov 16 21:55 Calm 10 Clear CLR 46 39     76%     30.14        
Nov 16 21:35 Calm 10 Clear CLR 46 41     81%     30.14        
Nov 16 21:15 Calm 10 Clear CLR 48 37     66%     30.13        
Nov 16 20:55 Calm 10 Clear CLR 52 37     58%     30.13        
Nov 16 20:35 Calm 10 Clear CLR 52 37     58%     30.13        
Nov 16 20:15 Calm 10 Clear CLR 52 39     62%     30.13        
Nov 16 19:55 WNW 5 10 Clear CLR 54 39     58%     30.13        
Nov 16 19:35 Calm 10 Clear CLR 54 39     58%     30.13        
Nov 16 19:15 Calm 10 Clear CLR 54 39     58%     30.13        
Nov 16 18:55 Calm 10 Clear CLR 55 39     54%     30.12        
Nov 16 18:35 WNW 6 10 Clear CLR 55 41     58%     30.12        
Nov 16 18:15 WNW 6 10 Clear CLR 55 41     58%     30.11        
Nov 16 17:55 NW 5 10 Clear CLR 55 39     54%     30.11        
Nov 16 17:35 NW 9 10 Clear CLR 57 39     51%     30.11        
Nov 16 17:15 WNW 10 10 Clear CLR 59 39     48%     30.1        
Nov 16 16:55 WNW 9 10 Clear CLR 59 37     45%     30.09        
Nov 16 16:35 WNW 9 10 Clear CLR 61 36     39%     30.09        
Nov 16 16:15 WNW 9 10 Clear CLR 63 37     39%     30.09        
Nov 16 15:55 W 11 10 Clear CLR 64 37     37%     30.09        
Nov 16 15:35 WNW 8 10 Clear CLR 63 39     42%     30.08        
Nov 16 15:15 WNW 8 10 Clear CLR 64 39     39%     30.08        
Nov 16 14:55 WNW 9 10 Clear CLR 66 41     40%     30.08        
Nov 16 14:35 NW 7 10 Clear CLR 66 39     37%     30.08        
Nov 16 14:15 WNW 10 10 Clear CLR 66 41     40%     30.09        
Nov 16 13:55 NW 11 10 Clear CLR 66 39     37%     30.09        
Nov 16 13:35 WNW 10 10 Clear CLR 64 41     42%     30.09        
Nov 16 13:15 NW 9 10 Clear CLR 64 41     42%     30.09        
Nov 16 12:55 W 9 10 Clear CLR 64 45     49%     30.1        
Nov 16 12:35 WNW 7 10 Clear CLR 64 45     49%     30.11        
Nov 16 12:15 NW 7 10 Clear CLR 63 46     55%     30.12        
Nov 16 11:55 WNW 10 10 Clear CLR 63 46     55%     30.13        
Nov 16 11:35 WNW 10 10 Clear CLR 63 46     55%     30.14        
Nov 16 11:15 WNW 8 10 Clear CLR 61 46     59%     30.15        
Nov 16 10:55 WNW 8 10 Clear CLR 61 46     59%     30.15        
Nov 16 10:35 WNW 7 10 Clear CLR 61 46     59%     30.15        
Nov 16 10:15 WNW 8 10 Clear CLR 59 46     63%     30.15        
Nov 16 09:55 NW 10 10 Partly Cloudy SCT026 59 46     63%     30.14        
Nov 16 09:35 NW 6 10 Partly Cloudy SCT026 59 48     67%     30.15        
Nov 16 09:15 NW 6 10 Clear CLR 57 50     77%     30.15        
Nov 16 08:55 NW 3 10 Clear CLR 55 50     82%     30.14        
Nov 16 08:35 WNW 3 10 Clear CLR 55 50     82%     30.13        
Nov 16 08:15 WNW 3 10 Clear CLR 54 50     88%     30.13        
Nov 16 07:55 Calm 10 Clear CLR 52 50     94%     30.13        
Nov 16 07:35 Calm 10 Clear CLR 52 50     94%     30.12        
Nov 16 07:15 Calm 10 Clear CLR 52 48     87%     30.12        
Nov 16 06:55 NW 5 10 Partly Cloudy SCT037 52 46     82%     30.12        
Nov 16 06:35 Calm 10 Mostly Cloudy BKN037 52 46     82%     30.12        
Nov 16 06:15 Calm 10 Cloudy OVC037 52 46     82%     30.11        
Nov 16 05:55 NW 3 10 Cloudy SCT021 OVC037 52 46     82%     30.1        
Nov 16 05:35 WNW 5 10 Cloudy OVC021 54 46     77%     30.1        
Nov 16 05:15 WNW 6 10 Cloudy OVC023 54 46     77%     30.11        
Nov 16 04:55 WNW 5 10 Cloudy OVC023 54 46     77%     30.11        
Nov 16 04:35 Calm 10 Cloudy OVC025 54 46     77%     30.11        
Nov 16 04:15 Calm 10 Cloudy OVC027 54 46     77%     30.1        
Nov 16 03:55 Calm 10 Cloudy OVC029 54 45     71%     30.1        
Nov 16 03:35 W 3 10 Cloudy OVC029 52 46     82%     30.09        
Nov 16 03:15 Calm 10 Cloudy OVC029 52 46     82%     30.09        
Nov 16 02:55 Calm 10 Cloudy OVC031 54 45     71%     30.09        
Nov 16 02:35 Calm 10 Cloudy OVC033 52 45     76%     30.09        
Nov 16 02:15 Calm 10 Cloudy OVC033 52 45     76%     30.09        
Nov 16 01:55 Calm 10 Cloudy OVC031 52 46     82%     30.1        
Nov 16 01:35 Calm 10 Cloudy OVC031 52 45     76%     30.1        
Nov 16 01:15 Calm 10 Cloudy OVC033 52 45     76%     30.11        
Nov 16 00:55 Calm 10 Cloudy OVC035 50 46     87%     30.11        
Nov 16 00:35 Calm 10 Cloudy OVC035 50 46     87%     30.11        
Nov 16 00:15 Calm 10 Partly Cloudy SCT037 SCT080 52 45     76%     30.11        
Nov 15 23:55 Calm 10 Partly Cloudy SCT041 SCT047 SCT060 52 45     76%     30.11        
Nov 15 23:35 Calm 10 Cloudy OVC039 52 45     76%     30.12        
Nov 15 23:15 Calm 10 Cloudy OVC039 52 46     82%     30.12        
Nov 15 22:55 Calm 10 Cloudy OVC041 52 46     82%     30.13        
Nov 15 22:35 Calm 10 Cloudy OVC043 52 46     82%     30.13        
Nov 15 22:15 Calm 10 Cloudy BKN043 OVC050 52 46     82%     30.13        
Nov 15 21:55 Calm 10 Cloudy BKN050 OVC075 52 46     82%     30.12        
Nov 15 21:35 Calm 10 Rain SCT049 BKN060 OVC095 52 46     82%     30.13        
Nov 15 21:15 Calm 10 Cloudy BKN060 OVC070 52 46     82%     30.13        
Nov 15 20:55 Calm 10 Cloudy OVC060 52 45     76%     30.12        
Nov 15 20:35 Calm 10 Cloudy OVC060 52 45     76%     30.12        
Nov 15 20:15 Calm 10 Cloudy BKN060 OVC075 52 43     71%     30.12        
Nov 15 19:55 Calm 10 Cloudy BKN060 OVC075 54 43     67%     30.12        
Nov 15 19:35 Calm 10 Cloudy SCT060 BKN075 OVC095 54 43     67%     30.12        
Nov 15 19:15 Calm 10 Cloudy OVC100 54 43     67%     30.12        
Nov 15 18:55 Calm 10 Cloudy OVC100 54 43     67%     30.13        
Nov 15 18:35 Calm 10 Partly Cloudy SCT100 54 43     67%     30.13        
Nov 15 18:15 Calm 10 Partly Cloudy SCT075 55 43     62%     30.12        
Nov 15 17:55 Calm 10 Mostly Cloudy BKN075 54 43     67%     30.11        
Nov 15 17:35 Calm 10 Clear CLR 57 41     55%     30.1        
Nov 15 17:15 Calm 10 Clear CLR 59 41     51%     30.1        
Nov 15 16:55 S 3 10 Clear CLR 59 41     51%     30.09        
Nov 15 16:35 Calm 10 Clear CLR 59 41     51%     30.09        
Nov 15 16:15 SSE 3 10 Clear CLR 59 39     48%     30.09        
Nov 15 15:55 Calm 10 Clear CLR 61 39     45%     30.1        
Nov 15 15:35 Calm 10 Clear CLR 61 37     42%     30.09        
Nov 15 15:15 WSW 3 10 Clear CLR 59 39     48%     30.1        
Nov 15 14:55 SE 3 10 Clear CLR 59 41     51%     30.1        
Nov 15 14:35 Calm 10 Clear CLR 61 41     48%     30.11        
Nov 15 14:15 SE 3 10 Clear CLR 61 41     48%     30.12        
Nov 15 13:55 Calm 10 Clear CLR 59 41     51%     30.13        
Nov 15 13:35 S 5 10 Clear CLR 59 41     51%     30.13        
Nov 15 13:15 Calm 10 Clear CLR 57 41     55%     30.14        
Nov 15 12:55 ESE 5 10 Clear CLR 57 41     55%     30.15        
Nov 15 12:35 Calm 10 Clear CLR 57 41     55%     30.15        
Nov 15 12:15 ESE 6 10 Clear CLR 55 41     58%     30.16        
Nov 15 11:55 E 3 10 Clear CLR 54 41     62%     30.18        
Nov 15 11:35 SE 6 10 Clear CLR 55 41     58%     30.19        
Nov 15 11:15 E 6 10 Clear CLR 54 41     62%     30.19        
Nov 15 10:55 E 3 10 Partly Cloudy SCT024 54 41     62%     30.2        
Nov 15 10:35 E 7 10 Partly Cloudy SCT022 52 41     67%     30.21        
Nov 15 10:15 ESE 6 10 Clear CLR 50 43     76% 48   30.21        
Nov 15 09:55 ESE 6 10 Clear   50 43     76% 48   30.21        
Nov 15 09:35 E 3 10 Clear   48 43     81% 47   30.21        
Nov 15 09:15 ESE 3 10 Clear   46 46     100% 45   30.21        
Nov 15 08:55 Calm 10 Clear   45 45     100%     30.21        
Nov 15 08:35 E 3 7 Clear   45 45     100% 43   30.21        
Nov 15 08:15 E 5 5 Fog/Mist   43 43     100% 40   30.21        
Nov 15 07:55 Calm 2.5 Fog/Mist CLR 41 41     100%     30.21        
Nov 15 07:35 Calm 1.75 Fog/Mist VV007 39 39     100%     30.21        
Nov 15 07:15 Calm 2.5 Fog/Mist CLR 37 37     100%     30.2        
Nov 15 06:55 Calm 3 Fog/Mist CLR 37 37     100%     30.2        
Nov 15 06:35 Calm 7 Clear CLR 41 41     100%     30.19        
Nov 15 06:15 Calm 5 Fog/Mist CLR 39 39     100%     30.2        
Nov 15 05:55 Calm 7 Clear CLR 43 43     100%     30.2        
Nov 15 05:35 Calm 7 Clear CLR 41 41     100%     30.2        
Nov 15 05:15 Calm 7 Clear CLR 41 41     100%     30.2        
Nov 15 04:55 Calm 5 Fog/Mist CLR 41 41     100%     30.2        
Nov 15 04:35 Calm 10 Clear CLR 43 43     100%     30.2        
Nov 15 04:15 Calm 5 Fog/Mist CLR 41 41     100%     30.21        
Nov 15 03:55 Calm 7 Clear CLR 43 43     100%     30.2        
Nov 15 03:35 Calm 10 Clear CLR 43 43     100%     30.21        
Nov 15 03:15 Calm 4 Fog/Mist CLR 41 41     100%     30.2        
Jun 12 08:55 Calm 10 Cloudy BKN008 OVC012 72 66     83%   72 30.25        
Jun 12 02:35 Calm 10 Clear CLR 73 64     73%   74 30.21        
Jun 11 23:35 E 3 10 Mostly Cloudy SCT029 BKN049 77 63     61%   77 30.21        
Jun 11 22:55 ESE 3 10 Partly Cloudy SCT049 77        %     30.21        
Jun 11 19:55 Calm 10 Partly Cloudy SCT055 82        %     30.17        
Jun 11 16:15 E 8 10 Partly Cloudy SCT038 88        %     30.2        
Jun 11 15:15 E 6 10 Mostly Cloudy SCT037 SCT042 BKN055 86        %     30.22        
Jun 11 07:35 Calm 10 Partly Cloudy SCT008 64 61     88%     30.21        
Jun 10 23:15 Calm 10 Clear CLR 73        %     30.18        
Jun 10 22:35 Calm 10 Clear CLR 75        %     30.16        
Jun 10 19:55 Calm 10 Mostly Cloudy BKN060 BKN075 82        %     30.11        
Jun 10 19:35 Calm 10 Partly Cloudy SCT060 81        %     30.1        
Jun 10 16:15 ENE 5 10 Partly Cloudy SCT055 SCT080 86        %     30.12        
Jun 10 11:35 Calm 10 Partly Cloudy SCT070 79        %     30.15        
Jun 10 11:15 Calm 10 Partly Cloudy SCT060 SCT070 77        %     30.16        
Jun 10 10:55 Calm 10 Mostly Cloudy SCT050 BKN070 77        %     30.16        
Jun 10 05:55 Calm 5 Fog/Mist CLR 59 55     88%     30.07        
Jun 10 05:15 Calm 5 Fog/Mist CLR 59 55     88%     30.06        
Jun 09 18:15 WNW 7 10 Clear CLR 81 46     30%   80 29.97        
Notice The following observation data may not be complete
Jun 09 15:35   10 Partly Cloudy SCT070          %              
Notice The following observation data may not be complete
Jun 09 15:15   10 Clear CLR          %              
Jun 09 14:55 WNW 3 10 Clear CLR 81        %     30        
Jun 09 09:55 Calm 10 Clear CLR 70 55     60%     30.02        
Jun 09 06:15 Calm 5 Fog/Mist CLR 59 55     88%     29.97        
Jun 08 23:35 Calm 10 Clear CLR 66 59     78%     29.93        
Jun 08 13:35 SSW 3 10 Partly Cloudy SCT036 SCT060 SCT085 75 48     38%   74 29.95        
Jun 08 12:35 ENE 3 10 Partly Cloudy SCT031 SCT041 SCT050 73        %     29.96        
Jun 08 10:15 ENE 7 10 Partly Cloudy SCT016 SCT100 70 54     56%     29.97        
Jun 08 09:35 ENE 5 10 Partly Cloudy SCT012 68 54     60%     29.97        
Jun 07 23:35 Calm 10 Light Drizzle SCT037 SCT042 OVC050 66 59     78%     29.91        
Jun 07 22:55 Calm 10 Cloudy BKN036 BKN055 OVC070 68 55     64%     29.91        
Jun 07 19:55 E 5 10 Mostly Cloudy SCT050 BKN075 77 52     41%   76 29.86        
Jun 07 16:15 Calm 10 Mostly Cloudy SCT060 BKN090 77 52     41%   76 29.85        
Jun 07 13:35 E 3 10 Clear CLR 79        %     29.86        
Notice The following observation data may not be complete
Jun 07 09:35   10 Mostly Cloudy BKN060 BKN070          %              
Jun 06 15:15 WNW 3 10 Clear CLR 79 61     54%   79 29.8        
Jun 06 06:35 Calm 1.25 Fog/Mist BKN009 70 66     88%     29.84        
Jun 06 05:55 Calm 1.5 Light Rain SCT005 BKN120 70 68     94%     29.84        
Notice The following observation data may not be complete
Jun 06 04:35   5 Fog/Mist OVC003          %              
Notice The following observation data may not be complete
Jun 06 03:35   7 Partly Cloudy SCT003 SCT080 SCT120          %              
Jun 06 01:35 Calm 7 Partly Cloudy SCT120 70 68     94%     29.86        
Jun 05 22:55 W 3 10 Clear   72 68     88%   73 29.87